Location: Unspecified
(0.0000°N, 0.0000°E)
Time: 21:46:13
(UTC+00:00)

GONETS M 07 - Visible Passes

Search period start: 04 June 2023 00:00
Search period end: 14 June 2023 00:00
Orbit: 1480 x 1508 km, 82.5° (Epoch: 04 June)

Date Brightness Start Highest point End Pass type
(mag) Time Alt. Az. Time Alt. Az. Time Alt. Az.
04 Jun ? 03:32:41 10° SSE 03:41:03 47° E 03:49:18 10° NNE visible
04 Jun ? 05:31:15 10° SW 05:37:27 21° W 05:43:39 10° NW visible
05 Jun ? 02:45:44 10° SE 02:51:51 21° E 02:57:52 10° NE visible
05 Jun ? 04:39:54 10° SSW 04:48:16 49° W 04:56:36 10° NNW visible
06 Jun ? 03:51:56 17° S 03:59:05 81° E 04:07:50 10° N visible
07 Jun ? 03:04:13 19° SSE 03:09:54 38° E 03:17:45 10° NNE visible
07 Jun ? 05:00:14 13° SW 05:06:17 27° W 05:13:20 10° NNW visible
08 Jun ? 02:16:23 11° SE 02:20:41 16° E 02:25:26 10° ENE visible
08 Jun ? 04:12:23 29° SSW 04:17:07 60° W 04:25:41 10° N visible
09 Jun ? 03:24:26 40° SSE 03:27:56 67° E 03:36:34 10° NNE visible
09 Jun ? 05:20:26 10° WSW 05:24:20 14° W 05:28:18 10° WNW visible
10 Jun ? 02:36:25 27° ESE 02:38:44 30° E 02:46:02 10° NE visible
10 Jun ? 04:32:24 29° WSW 04:35:09 34° W 04:42:48 10° NNW visible
11 Jun ? 01:48:19 11° ESE 01:49:31 11° E 01:52:04 10° ENE visible
11 Jun ? 03:44:18 61° SSW 03:45:58 74° W 03:54:41 10° N visible
12 Jun ? 02:56:08 53° ESE 02:56:48 54° E 03:05:12 10° NNE visible
12 Jun ? 04:52:07 18° W 04:53:11 18° W 04:58:42 10° NW visible
13 Jun ? 02:07:55 24° E 02:07:55 24° E 02:14:08 10° NE visible
13 Jun ? 04:03:53 43° W 04:04:00 43° W 04:12:06 10° NNW visible
